INMARSAT 3-F5

Last updated on Fri Nov 07 2025 00:02:47 GMT+0000 (Coordinated Universal Time)

1 25153U 98006B 25310.19558569 -.00000282 00000+0 00000+0 0 9999 2 25153 9.1931 55.4299 0005266 176.7939 189.9139 1.00272425101663
UTC large
Height (km)
Speed (km/s)
/
Latitude / Longitude
Inclination (degrees)
Orbital Period (minutes)
Azimuth
Elevation
Range (km)
Doppler Factor

Next 0 passes for location: London (51.5072 / 0.1276)

Sorry there are no passes over London.